Location: Eckley
(40.9930°N, 75.8630°W)
Time: 18:05:00
(UTC-04:00)

Daily predictions for brighter satellites

Satellite Brightness Start Highest point End
(mag) Time Altitude Azimuth Time Altitude Azimuth Time Altitude Azimuth
OAO 3 Rocket 4.0 19:09:59 10° WSW 19:14:25 41° S 19:18:54 10° ESE
Cosmos 1452 Rocket 3.8 19:09:56 10° N 19:15:01 47° ENE 19:20:03 10° SE
MSX 4.1 19:09:55 10° S 19:15:39 79° WSW 19:21:26 10° NNW
Cosmos 2034 Rocket 4.4 19:12:51 10° SSE 19:18:41 43° E 19:24:37 10° NNE
Cosmos 1464 Rocket 4.1 19:13:02 10° S 19:19:07 59° E 19:25:10 10° NNE
In-Cosmos 22 4.5 19:15:22 10° N 19:20:59 50° ENE 19:26:31 10° SSE
DMSP B5D1-3 4.5 19:17:31 10° NNE 19:22:39 77° ESE 19:27:44 10° S
Cosmos 2333 Rocket 4.3 19:18:25 10° WSW 19:23:25 30° NW 19:28:27 10° N
CZ-4C R/B 4.0 19:22:38 10° WSW 19:27:28 31° NW 19:32:51 10° NNE
Cosmos 1674 4.3 19:26:07 10° NNE 19:28:46 17° ENE 19:31:20 10° ESE
CENTAUR R/B 3.4 19:25:18 10° SSE 19:30:01 25° ESE 19:35:08 10° ENE
ATLAS CENTAUR R/B 3.5 19:27:09 10° SW 19:31:52 82° SE 19:47:07 10° NE
SKYMED 2 4.2 19:28:00 10° N 19:32:18 61° WNW 19:36:34 10° SSW
SJ-6B 2.8 19:28:49 10° SSE 19:32:47 71° ENE 19:36:51 10° N
Cosmos 1408 Rocket 3.5 19:29:08 10° N 19:33:28 63° E 19:37:44 10° SSE
Cosmos 724 4.3 19:30:15 10° SSW 19:36:05 66° ESE 19:42:07 10° NE
ATLAS 5 CENTAUR R/B 1.9 19:32:18 10° SW 19:37:04 84° WNW 19:42:16 10° NNE
NOSS 3-2 (C) 3.7 19:34:33 10° SW 19:40:38 77° NW 19:47:18 10° NNE
Cosmos 2237 Rocket 4.5 19:36:58 10° WSW 19:41:38 26° NW 19:46:18 10° N
Cosmos 1484 Rocket 4.2 19:40:01 10° S 19:43:39 42° W 19:47:24 10° NNW
ALOS 3.0 19:42:20 10° SE 19:46:26 32° ENE 19:50:33 10° N
Cosmos 1758 3.3 19:43:01 10° S 19:47:05 72° E 19:51:11 10° NNE
Helios 1A 3.1 19:46:26 10° SSE 19:50:31 52° ENE 19:54:38 10° N
Spot 2 Rocket 3.4 19:45:50 10° SSE 19:50:48 65° ENE 19:55:49 10° N
ISS -3.1 19:50:01 10° SW 19:53:08 47° SE 19:54:43 24° ENE
Cosmos 1048 Rocket 4.2 19:49:02 10° S 19:54:07 48° ESE 19:59:08 10° NNE
Cosmos 1544 3.1 19:52:59 10° S 19:56:39 60° E 20:00:22 10° NNE
Cosmos 1269 Rocket 4.0 19:51:51 10° S 19:57:02 61° ESE 20:02:15 10° NNE
METEOR-M 4.1 19:53:47 10° SSE 19:59:08 87° ENE 20:04:32 10° NNW
Resurs 1-3 3.6 19:55:49 10° SSE 20:00:08 59° ENE 20:04:28 10° N
SL-8 R/B 3.6 19:56:13 10° SW 20:00:59 75° SSE 20:04:21 19° ENE
Meteor 1-21 Rocket 4.1 19:56:07 10° N 20:01:42 81° E 20:07:14 10° SSE
SL-16 R/B 3.8 19:57:49 10° SW 20:03:03 37° WNW 20:08:20 10° N
Cosmos 1743 Rocket 3.5 19:59:03 10° N 20:03:28 64° E 20:07:49 10° SSE
Resurs 01 Rocket 1.6 20:01:19 10° SSE 20:05:46 89° ENE 20:10:14 10° NNW
HJ-1C 3.6 20:06:14 10° S 20:09:34 71° WSW 20:12:57 10° NNW
Cosmos 158 Rocket 4.2 20:08:18 10° S 20:12:51 40° ESE 20:17:24 10° NE
USA 215 3.2 20:07:08 10° NE 20:13:40 71° SE 20:20:10 10° SW
FENGYUN 3A 3.6 20:09:57 10° SSE 20:15:14 62° ENE 20:20:34 10° N
CZ-2D R/B 3.5 20:15:35 37° ESE 20:16:36 47° ENE 20:20:21 10° N
Helios 1B rocket 2.9 20:19:38 10° N 20:23:43 63° WNW 20:27:46 10° SSW
Nadezhda 4 Rocket 4.0 20:17:57 10° N 20:24:15 85° W 20:30:26 10° S
Abrixas 2.9 20:23:49 10° WSW 20:26:46 55° NNW 20:26:59 53° N
H-2A R/B 2.7 20:28:07 52° SE 20:28:52 66° ENE 20:32:43 10° N
GP-B 3.2 20:26:08 10° NNE 20:30:27 49° E 20:30:36 49° E
SeaSat 1 4.4 20:34:29 14° S 20:34:29 14° S 20:35:17 10° S
CZ-4B DEB 2.8 20:31:56 73° SSW 20:32:11 82° WSW 20:35:28 10° NNW
Cosmos 1092 Rocket 3.9 20:27:00 10° N 20:33:15 83° E 20:39:24 10° S
ERS-1 Rocket 4.0 20:35:35 29° NE 20:35:35 29° NE 20:39:12 10° N
GPS 2-04 Rocket1 3.7 20:34:13 10° WSW 20:36:40 29° SSW 20:36:40 29° SSW
Gbstr 26 Del rocket 3.2 20:33:46 10° SW 20:38:14 76° SE 20:39:48 44° ENE
Cosmos 1655 Rocket 4.2 20:33:25 10° N 20:39:25 47° ENE 20:40:32 42° ESE
Cosmos 1943 Rocket 2.9 20:34:32 10° N 20:39:36 33° ENE 20:39:37 33° ENE
Cosmos 2142 Rocket 4.4 20:34:35 10° S 20:40:54 69° E 20:47:16 10° NNE
Meteor 1-29 4.4 20:38:08 10° N 20:41:25 38° WNW 20:44:41 10° SW
Cosmos 2369 Rocket 2.1 20:37:46 10° NNW 20:43:28 78° ENE 20:45:20 44° SE
Cosmos 1943 3.0 20:38:34 10° SSW 20:44:12 84° ESE 20:49:52 10° NNE
Cosmos 2026 Rocket 3.9 20:39:23 10° N 20:45:24 58° E 20:46:55 46° SE
Cosmos 1110 Rocket 4.1 20:40:48 10° N 20:45:59 52° ENE 20:46:09 52° ENE
Cosmos 1634 Rocket 3.9 20:42:31 10° S 20:48:46 84° E 20:55:00 10° N
Cosmos 2058 4.3 20:45:49 10° N 20:47:52 27° NNE 20:47:52 27° NNE
Cosmos 2151 3.1 20:48:29 10° N 20:52:06 63° N 20:52:06 63° N
Cosmos 2263 4.1 20:47:09 10° NNW 20:52:55 68° ENE 20:53:43 60° ESE
Cosmos 1733 3.9 20:50:50 10° SSW 20:54:37 53° W 20:58:25 10° N
Cosmos 1470 4.0 20:52:55 10° SSW 20:56:36 41° WNW 21:00:18 10° N
OAO 3 Rocket 4.4 20:53:18 10° WSW 20:57:20 30° SSW 20:57:20 30° SSW
Cosmos 839 Rocket 4.1 20:54:17 10° NNW 21:01:54 89° WSW 21:03:47 51° SSE
ASTEX 1 4.3 20:59:30 10° N 21:04:13 47° W 21:08:51 10° SSW
Cosmos 2195 Rocket 4.5 21:01:11 10° N 21:07:32 84° W 21:10:05 39° S
Meteor 2-1 Rocket 4.4 21:16:32 64° NNE 21:16:32 64° NNE 21:21:32 10° NNE
Cosmos 1331 Rocket 4.2 21:12:51 10° NNW 21:17:26 66° NNW 21:17:26 66° NNW
CENTAUR R/B 3.0 21:14:02 10° SW 21:20:02 59° NW 21:26:51 10° NNE
ALOS 4.3 21:20:32 13° SSW 21:23:52 26° W 21:27:46 10° NW
Meteor 1-16 Rocket 4.4 21:22:42 46° SW 21:24:02 62° WNW 21:29:19 10° N
ISS 0.0 21:26:58 10° W 21:27:25 13° WNW 21:27:25 13° WNW
SL-24 R/B - RUBIN 2 4.5 21:27:29 10° NW 21:33:48 78° WNW 21:33:48 78° WNW
Envisat 4.2 21:42:35 37° NNW 21:42:35 37° NNW 21:45:39 10° NNW
USA 215 4.3 21:53:08 25° NNE 21:56:24 41° NNW 22:02:24 10° W
Cosmos 1943 Rocket 4.0 22:18:16 10° NW 22:21:09 26° WNW 22:21:09 26° WNW
CZ-3A R/B 4.3 21:58:56 10° SW 22:27:53 80° SSW 22:27:53 80° SSW
